QPF
0.00 0.00 0.00 0.00 0.00 0.00 0.01 0.01 0.02 0.04 0.06 0.07 0.08 0.10 0.11 0.09 0.06 0.04 0.04 0.05 0.05 0.06 0.07 0.06 0.14 0.10 0.11 0.11 0.10 0.13 0.13 0.09 0.07 0.11 0.12 0.08 0.05 0.04 0.03 0.02 0.04 0.03 0.02
0.00 0.00 0.00 0.00 0.00 0.00 0.01 0.02 0.02 0.03 0.04 0.05 0.06 0.08 0.09 0.09 0.09 0.08 0.08 0.07 0.06 0.05 0.05 0.07 0.10 0.12 0.14 0.13 0.14 0.14 0.16 0.13 0.10 0.13 0.16 0.15 0.14 0.11 0.04 0.04 0.03 0.02 0.02
0.00 0.00 0.00 0.00 0.00 0.00 0.01 0.02 0.03 0.03 0.04 0.05 0.05 0.07 0.08 0.08 0.12 0.10 0.09 0.07 0.06 0.06 0.07 0.07 0.07 0.11 0.10 0.12 0.13 0.13 0.15 0.15 0.16 0.15 0.17 0.16 0.18 0.16 0.09 0.08 0.04 0.03 0.05
0.00 0.00 0.00 0.00 0.00 0.00 0.00 0.01 0.02 0.02 0.03 0.03 0.05 0.08 0.09 0.11 0.12 0.11 0.10 0.09 0.09 0.07 0.08 0.08 0.09 0.09 0.10 0.15 0.10 0.12 0.15 0.18 0.17 0.17 0.13 0.12 0.15 0.17 0.15 0.12 0.07 0.06 0.05
0.00 0.00 0.00 0.00 0.00 0.00 0.00 0.01 0.02 0.03 0.03 0.03 0.03 0.05 0.07 0.10 0.09 0.09 0.10 0.10 0.10 0.08 0.06 0.08 0.10 0.11 0.11 0.14 0.12 0.17 0.15 0.15 0.16 0.16 0.17 0.17 0.16 0.12 0.15 0.16 0.15 0.13 0.09
0.00 0.00 0.00 0.00 0.00 0.00 0.00 0.01 0.02 0.02 0.02 0.02 0.02 0.05 0.08 0.09 0.09 0.11 0.11 0.08 0.08 0.08 0.07 0.08 0.10 0.09 0.10 0.12 0.12 0.13 0.13 0.14 0.14 0.14 0.13 0.14 0.13 0.13 0.16 0.15 0.15 0.14 0.11
0.00 0.00 0.00 0.00 0.00 0.00 0.00 0.00 0.01 0.02 0.02 0.03 0.03 0.05 0.08 0.09 0.08 0.08 0.10 0.09 0.08 0.08 0.08 0.09 0.10 0.10 0.09 0.09 0.12 0.13 0.12 0.13 0.14 0.13 0.11 0.11 0.09 0.10 0.12 0.14 0.14 0.15 0.11
0.00 0.00 0.00 0.00 0.00 0.00 0.00 0.00 0.01 0.01 0.02 0.03 0.04 0.07 0.08 0.07 0.07 0.08 0.07 0.09 0.10 0.09 0.08 0.08 0.08 0.08 0.08 0.08 0.15 0.13 0.12 0.12 0.11 0.10 0.13 0.12 0.09 0.09 0.10 0.12 0.15 0.15 0.12
0.00 0.00 0.00 0.00 0.00 0.00 0.00 0.00 0.00 0.01 0.01 0.02 0.04 0.04 0.05 0.05 0.05 0.06 0.06 0.06 0.07 0.08 0.07 0.06 0.06 0.07 0.07 0.09 0.13 0.13 0.12 0.14 0.13 0.12 0.14 0.13 0.09 0.07 0.07 0.09 0.14 0.16 0.15
0.01 0.00 0.00 0.00 0.00 0.00 0.00 0.00 0.00 0.01 0.01 0.02 0.02 0.02 0.03 0.03 0.03 0.04 0.04 0.04 0.04 0.04 0.04 0.04 0.04 0.05 0.07 0.08 0.10 0.10 0.12 0.14 0.13 0.13 0.14 0.13 0.10 0.08 0.08 0.10 0.13 0.15 0.16
0.03 0.01 0.00 0.00 0.00 0.00 0.00 0.00 0.01 0.01 0.01 0.02 0.02 0.02 0.02 0.02 0.02 0.03 0.03 0.03 0.04 0.04 0.04 0.06 0.07 0.07 0.09 0.12 0.13 0.10 0.11 0.11 0.12 0.12 0.14 0.14 0.13 0.11 0.08 0.09 0.10 0.12 0.15
0.02 0.04 0.02 0.01 0.00 0.00 0.00 0.00 0.00 0.00 0.01 0.01 0.01 0.02 0.01 0.01 0.02 0.02 0.03 0.03 0.05 0.05 0.05 0.07 0.08 0.08 0.09 0.11 0.10 0.09 0.12 0.13 0.13 0.13 0.14 0.12 0.12 0.14 0.11 0.10 0.09 0.11 0.13
0.00 0.01 0.02 0.01 0.00 0.00 0.00 0.00 0.00 0.00 0.00 0.00 0.00 0.01 0.01 0.01 0.02 0.03 0.03 0.05 0.06 0.06 0.06 0.08 0.08 0.08 0.10 0.11 0.11 0.13 0.17 0.17 0.13 0.13 0.12 0.12 0.13 0.13 0.12 0.11 0.12 0.12 0.11
0.00 0.00 0.00 0.00 0.00 0.00 0.00 0.00 0.00 0.00 0.00 0.00 0.00 0.00 0.01 0.01 0.02 0.02 0.03 0.03 0.04 0.05 0.05 0.06 0.08 0.13 0.18 0.17 0.13 0.11 0.11 0.11 0.11 0.13 0.14 0.14 0.13 0.14 0.14 0.13 0.14 0.15 0.16
0.00 0.00 0.00 0.00 0.00 0.00 0.00 0.00 0.00 0.00 0.00 0.00 0.00 0.00 0.01 0.01 0.02 0.02 0.03 0.03 0.04 0.04 0.05 0.06 0.09 0.11 0.14 0.12 0.10 0.09 0.10 0.10 0.10 0.12 0.13 0.14 0.13 0.12 0.12 0.10 0.12 0.13 0.14
0.00 0.00 0.00 0.00 0.00 0.00 0.00 0.00 0.00 0.00 0.00 0.00 0.00 0.01 0.01 0.01 0.02 0.02 0.03 0.04 0.04 0.06 0.06 0.06 0.06 0.06 0.05 0.05 0.04 0.05 0.07 0.10 0.11 0.12 0.11 0.11 0.11 0.10 0.09 0.08 0.07 0.08 0.10
0.00 0.00 0.00 0.00 0.00 0.00 0.00 0.00 0.00 0.01 0.01 0.01 0.01 0.01 0.01 0.02 0.03 0.04 0.05 0.06 0.06 0.07 0.06 0.04 0.04 0.03 0.03 0.03 0.02 0.03 0.05 0.07 0.09 0.09 0.10 0.09 0.07 0.07 0.07 0.07 0.06 0.06 0.06
0.00 0.00 0.00 0.01 0.00 0.00 0.01 0.00 0.01 0.02 0.03 0.02 0.02 0.03 0.03 0.05 0.05 0.05 0.06 0.07 0.06 0.05 0.05 0.04 0.03 0.02 0.03 0.03 0.02 0.02 0.03 0.03 0.04 0.05 0.06 0.08 0.08 0.07 0.07 0.07 0.06 0.05 0.05
0.00 0.00 0.00 0.01 0.01 0.01 0.01 0.01 0.02 0.04 0.04 0.04 0.04 0.05 0.05 0.05 0.06 0.05 0.05 0.05 0.04 0.03 0.03 0.03 0.02 0.02 0.02 0.02 0.02 0.01 0.02 0.03 0.03 0.04 0.03 0.04 0.05 0.07 0.08 0.07 0.07 0.07 0.06
0.00 0.00 0.00 0.01 0.01 0.01 0.02 0.03 0.04 0.05 0.06 0.07 0.08 0.09 0.11 0.11 0.08 0.05 0.05 0.04 0.04 0.03 0.03 0.02 0.02 0.02 0.03 0.03 0.02 0.02 0.02 0.03 0.03 0.04 0.03 0.04 0.05 0.06 0.06 0.06 0.07 0.07 0.06
0.00 0.00 0.00 0.01 0.01 0.01 0.02 0.04 0.06 0.08 0.09 0.09 0.10 0.10 0.09 0.08 0.07 0.07 0.07 0.06 0.05 0.04 0.03 0.03 0.03 0.03 0.03 0.04 0.03 0.03 0.03 0.03 0.03 0.03 0.03 0.02 0.03 0.03 0.04 0.05 0.05 0.06 0.06
0.00 0.00 0.00 0.00 0.01 0.02 0.04 0.05 0.06 0.08 0.09 0.08 0.07 0.07 0.05 0.05 0.06 0.08 0.08 0.07 0.05 0.04 0.04 0.04 0.04 0.04 0.05 0.05 0.04 0.03 0.03 0.03 0.03 0.02 0.03 0.02 0.02 0.02 0.02 0.02 0.03 0.04 0.05
0.00 0.00 0.01 0.02 0.03 0.04 0.05 0.06 0.07 0.08 0.06 0.05 0.04 0.04 0.04 0.04 0.04 0.05 0.06 0.05 0.05 0.05 0.05 0.05 0.05 0.06 0.07 0.06 0.05 0.04 0.04 0.04 0.03 0.03 0.03 0.03 0.03 0.03 0.02 0.02 0.02 0.03 0.03
0.01 0.01 0.02 0.02 0.04 0.05 0.06 0.07 0.08 0.06 0.04 0.04 0.04 0.04 0.04 0.04 0.04 0.04 0.04 0.03 0.04 0.04 0.05 0.05 0.06 0.06 0.06 0.06 0.05 0.05 0.04 0.04 0.04 0.04 0.03 0.03 0.03 0.03 0.02 0.02 0.02 0.03 0.03
0.02 0.02 0.03 0.04 0.04 0.06 0.08 0.10 0.10 0.09 0.08 0.07 0.06 0.05 0.03 0.03 0.03 0.03 0.02 0.02 0.02 0.03 0.04 0.04 0.04 0.04 0.04 0.05 0.05 0.05 0.04 0.03 0.03 0.03 0.03 0.02 0.02 0.02 0.02 0.02 0.02 0.02 0.02
0.03 0.03 0.03 0.04 0.04 0.05 0.07 0.07 0.08 0.10 0.11 0.09 0.06 0.04 0.02 0.02 0.02 0.01 0.02 0.02 0.02 0.03 0.03 0.02 0.02 0.03 0.03 0.04 0.03 0.03 0.03 0.03 0.02 0.02 0.03 0.03 0.04 0.04 0.04 0.03 0.03 0.02 0.02
MSLP
1008.39 1009.07 1009.73 1010.34 1010.88 1011.38 1011.85 1012.30 1012.76 1013.23 1013.70 1014.16 1014.57 1014.92 1015.19 1015.39 1015.53 1015.63 1015.71 1015.80 1015.92 1016.07 1016.25 1016.46 1016.69 1016.92 1017.14 1017.37 1017.59 1017.80 1018.02 1018.22 1018.40 1018.54 1018.63 1018.64 1018.57 1018.42 1018.20 1017.94 1017.68 1017.47 1017.33
1007.93 1008.74 1009.53 1010.24 1010.86 1011.40 1011.87 1012.31 1012.76 1013.23 1013.73 1014.23 1014.71 1015.13 1015.46 1015.70 1015.84 1015.91 1015.93 1015.93 1015.96 1016.02 1016.13 1016.30 1016.50 1016.74 1017.00 1017.26 1017.52 1017.78 1018.03 1018.26 1018.47 1018.63 1018.71 1018.72 1018.63 1018.44 1018.16 1017.82 1017.46 1017.13 1016.88
1007.65 1008.57 1009.47 1010.27 1010.95 1011.50 1011.95 1012.37 1012.78 1013.24 1013.74 1014.27 1014.80 1015.28 1015.67 1015.94 1016.10 1016.14 1016.12 1016.06 1016.00 1016.00 1016.05 1016.18 1016.38 1016.62 1016.89 1017.17 1017.45 1017.72 1017.97 1018.19 1018.39 1018.54 1018.62 1018.62 1018.53 1018.33 1018.04 1017.68 1017.29 1016.90 1016.56
1007.56 1008.57 1009.55 1010.41 1011.12 1011.66 1012.08 1012.44 1012.80 1013.20 1013.68 1014.22 1014.77 1015.30 1015.74 1016.05 1016.23 1016.28 1016.23 1016.13 1016.04 1015.99 1016.01 1016.12 1016.30 1016.53 1016.80 1017.08 1017.34 1017.59 1017.80 1017.98 1018.14 1018.25 1018.32 1018.32 1018.25 1018.09 1017.85 1017.52 1017.15 1016.76 1016.39
1007.62 1008.70 1009.73 1010.62 1011.32 1011.83 1012.19 1012.48 1012.76 1013.10 1013.53 1014.05 1014.61 1015.16 1015.64 1016.00 1016.20 1016.27 1016.24 1016.13 1016.03 1015.96 1015.97 1016.06 1016.24 1016.46 1016.72 1016.96 1017.19 1017.37 1017.52 1017.63 1017.72 1017.79 1017.84 1017.86 1017.83 1017.74 1017.58 1017.34 1017.04 1016.70 1016.36
1007.78 1008.88 1009.93 1010.83 1011.51 1011.97 1012.26 1012.45 1012.65 1012.91 1013.28 1013.76 1014.31 1014.87 1015.38 1015.77 1016.02 1016.12 1016.11 1016.03 1015.93 1015.88 1015.89 1015.99 1016.16 1016.37 1016.60 1016.80 1016.97 1017.08 1017.14 1017.17 1017.19 1017.21 1017.24 1017.27 1017.30 1017.30 1017.25 1017.14 1016.95 1016.71 1016.41
1007.94 1009.04 1010.09 1010.97 1011.61 1012.02 1012.24 1012.36 1012.47 1012.65 1012.96 1013.39 1013.92 1014.47 1014.99 1015.41 1015.70 1015.84 1015.86 1015.82 1015.75 1015.71 1015.74 1015.85 1016.02 1016.22 1016.42 1016.58 1016.68 1016.72 1016.70 1016.65 1016.59 1016.57 1016.58 1016.64 1016.73 1016.82 1016.90 1016.91 1016.86 1016.73 1016.52
1008.04 1009.12 1010.14 1010.99 1011.59 1011.95 1012.12 1012.18 1012.23 1012.36 1012.61 1013.00 1013.49 1014.03 1014.55 1014.98 1015.29 1015.46 1015.52 1015.50 1015.47 1015.46 1015.51 1015.62 1015.79 1015.99 1016.16 1016.29 1016.34 1016.31 1016.23 1016.11 1016.00 1015.94 1015.94 1016.02 1016.17 1016.35 1016.54 1016.68 1016.76 1016.74 1016.61
1008.05 1009.08 1010.05 1010.86 1011.43 1011.76 1011.89 1011.92 1011.95 1012.04 1012.26 1012.62 1013.08 1013.60 1014.11 1014.54 1014.85 1015.03 1015.11 1015.12 1015.10 1015.12 1015.18 1015.31 1015.48 1015.67 1015.83 1015.93 1015.96 1015.89 1015.77 1015.61 1015.47 1015.39 1015.39 1015.48 1015.67 1015.92 1016.19 1016.44 1016.62 1016.70 1016.66
1007.94 1008.90 1009.82 1010.58 1011.11 1011.43 1011.56 1011.60 1011.63 1011.73 1011.94 1012.29 1012.73 1013.22 1013.71 1014.12 1014.41 1014.59 1014.68 1014.69 1014.69 1014.71 1014.78 1014.92 1015.09 1015.28 1015.44 1015.54 1015.55 1015.48 1015.34 1015.18 1015.03 1014.93 1014.94 1015.05 1015.26 1015.55 1015.88 1016.19 1016.44 1016.60 1016.64
1007.74 1008.62 1009.47 1010.16 1010.67 1010.97 1011.13 1011.20 1011.27 1011.40 1011.64 1011.99 1012.43 1012.91 1013.36 1013.74 1014.02 1014.18 1014.25 1014.26 1014.25 1014.28 1014.35 1014.48 1014.66 1014.85 1015.01 1015.12 1015.15 1015.09 1014.97 1014.82 1014.68 1014.59 1014.60 1014.71 1014.93 1015.24 1015.59 1015.93 1016.23 1016.43 1016.52
1007.50 1008.29 1009.03 1009.65 1010.11 1010.41 1010.59 1010.71 1010.84 1011.03 1011.32 1011.70 1012.15 1012.61 1013.05 1013.41 1013.66 1013.80 1013.85 1013.85 1013.84 1013.85 1013.92 1014.05 1014.22 1014.41 1014.58 1014.70 1014.75 1014.73 1014.64 1014.52 1014.41 1014.35 1014.36 1014.47 1014.69 1014.98 1015.32 1015.66 1015.97 1016.20 1016.33
1007.27 1007.94 1008.56 1009.08 1009.49 1009.77 1009.97 1010.14 1010.33 1010.59 1010.94 1011.36 1011.83 1012.30 1012.73 1013.08 1013.31 1013.44 1013.48 1013.48 1013.46 1013.46 1013.52 1013.64 1013.81 1013.99 1014.17 1014.31 1014.38 1014.39 1014.35 1014.27 1014.20 1014.16 1014.19 1014.30 1014.49 1014.76 1015.07 1015.40 1015.70 1015.94 1016.10
1007.09 1007.62 1008.10 1008.51 1008.83 1009.08 1009.28 1009.48 1009.74 1010.06 1010.47 1010.94 1011.44 1011.94 1012.38 1012.72 1012.96 1013.10 1013.14 1013.14 1013.13 1013.14 1013.19 1013.30 1013.45 1013.62 1013.79 1013.94 1014.04 1014.08 1014.08 1014.05 1014.02 1014.01 1014.06 1014.17 1014.35 1014.58 1014.86 1015.16 1015.44 1015.67 1015.85
1006.99 1007.37 1007.71 1007.99 1008.20 1008.39 1008.57 1008.79 1009.08 1009.46 1009.91 1010.43 1010.97 1011.49 1011.95 1012.32 1012.59 1012.75 1012.82 1012.85 1012.86 1012.88 1012.93 1013.02 1013.16 1013.31 1013.47 1013.61 1013.72 1013.79 1013.83 1013.84 1013.86 1013.89 1013.96 1014.08 1014.25 1014.46 1014.70 1014.96 1015.21 1015.44 1015.63
1006.98 1007.22 1007.42 1007.56 1007.67 1007.78 1007.92 1008.13 1008.43 1008.83 1009.31 1009.86 1010.43 1010.98 1011.47 1011.87 1012.18 1012.38 1012.51 1012.58 1012.63 1012.67 1012.73 1012.82 1012.93 1013.06 1013.20 1013.33 1013.44 1013.53 1013.60 1013.66 1013.73 1013.81 1013.91 1014.04 1014.21 1014.40 1014.61 1014.84 1015.06 1015.26 1015.45
1007.07 1007.20 1007.27 1007.29 1007.29 1007.32 1007.40 1007.58 1007.86 1008.26 1008.74 1009.30 1009.87 1010.44 1010.96 1011.40 1011.76 1012.02 1012.21 1012.34 1012.44 1012.51 1012.59 1012.67 1012.77 1012.87 1012.99 1013.10 1013.21 1013.31 1013.42 1013.52 1013.64 1013.77 1013.91 1014.07 1014.25 1014.43 1014.62 1014.81 1014.99 1015.17 1015.34
1007.27 1007.33 1007.31 1007.23 1007.14 1007.09 1007.11 1007.23 1007.48 1007.84 1008.29 1008.82 1009.39 1009.95 1010.48 1010.96 1011.36 1011.68 1011.94 1012.13 1012.28 1012.40 1012.50 1012.58 1012.67 1012.75 1012.84 1012.93 1013.04 1013.16 1013.29 1013.45 1013.62 1013.81 1014.00 1014.20 1014.39 1014.57 1014.74 1014.89 1015.03 1015.17 1015.30
1007.60 1007.62 1007.54 1007.40 1007.25 1007.14 1007.10 1007.16 1007.35 1007.65 1008.04 1008.52 1009.04 1009.58 1010.10 1010.59 1011.02 1011.40 1011.71 1011.97 1012.17 1012.33 1012.46 1012.55 1012.63 1012.70 1012.77 1012.85 1012.96 1013.09 1013.26 1013.46 1013.69 1013.93 1014.18 1014.41 1014.62 1014.80 1014.95 1015.07 1015.17 1015.26 1015.35
1008.04 1008.06 1007.97 1007.81 1007.63 1007.47 1007.38 1007.38 1007.50 1007.72 1008.04 1008.44 1008.89 1009.37 1009.86 1010.34 1010.78 1011.19 1011.55 1011.86 1012.12 1012.32 1012.48 1012.59 1012.67 1012.73 1012.79 1012.87 1012.98 1013.13 1013.32 1013.57 1013.84 1014.14 1014.43 1014.70 1014.93 1015.11 1015.24 1015.33 1015.38 1015.42 1015.45
1008.60 1008.64 1008.56 1008.41 1008.22 1008.04 1007.92 1007.87 1007.91 1008.05 1008.27 1008.58 1008.94 1009.35 1009.78 1010.23 1010.67 1011.10 1011.49 1011.85 1012.15 1012.40 1012.58 1012.72 1012.81 1012.87 1012.93 1013.00 1013.11 1013.27 1013.49 1013.76 1014.07 1014.40 1014.72 1015.01 1015.25 1015.43 1015.55 1015.60 1015.62 1015.60 1015.59
1009.22 1009.30 1009.25 1009.12 1008.95 1008.78 1008.63 1008.54 1008.52 1008.57 1008.70 1008.90 1009.17 1009.49 1009.86 1010.27 1010.69 1011.12 1011.54 1011.93 1012.27 1012.56 1012.78 1012.94 1013.04 1013.11 1013.17 1013.24 1013.35 1013.51 1013.73 1014.01 1014.33 1014.67 1015.00 1015.30 1015.54 1015.72 1015.81 1015.84 1015.82 1015.77 1015.72
1009.86 1009.97 1009.96 1009.87 1009.73 1009.56 1009.41 1009.29 1009.22 1009.20 1009.24 1009.35 1009.52 1009.76 1010.06 1010.42 1010.82 1011.24 1011.68 1012.10 1012.48 1012.80 1013.06 1013.25 1013.38 1013.46 1013.52 1013.58 1013.68 1013.82 1014.02 1014.28 1014.59 1014.91 1015.23 1015.51 1015.74 1015.89 1015.97 1015.99 1015.95 1015.89 1015.82
1010.46 1010.58 1010.60 1010.54 1010.43 1010.29 1010.14 1010.01 1009.90 1009.82 1009.80 1009.83 1009.92 1010.08 1010.32 1010.63 1011.01 1011.43 1011.88 1012.32 1012.74 1013.11 1013.40 1013.62 1013.77 1013.86 1013.92 1013.97 1014.04 1014.15 1014.32 1014.53 1014.79 1015.07 1015.35 1015.60 1015.79 1015.93 1016.00 1016.01 1015.97 1015.91 1015.85
1010.94 1011.05 1011.08 1011.05 1010.97 1010.86 1010.73 1010.59 1010.47 1010.36 1010.29 1010.26 1010.29 1010.40 1010.58 1010.86 1011.22 1011.63 1012.09 1012.56 1013.01 1013.42 1013.75 1014.00 1014.17 1014.28 1014.33 1014.36 1014.40 1014.46 1014.57 1014.72 1014.91 1015.13 1015.35 1015.54 1015.71 1015.82 1015.88 1015.90 1015.88 1015.85 1015.82
1011.22 1011.31 1011.35 1011.34 1011.29 1011.21 1011.11 1010.99 1010.87 1010.75 1010.65 1010.59 1010.58 1010.64 1010.79 1011.04 1011.38 1011.79 1012.26 1012.75 1013.23 1013.66 1014.03 1014.31 1014.51 1014.62 1014.67 1014.68 1014.69 1014.70 1014.74 1014.82 1014.94 1015.08 1015.24 1015.38 1015.51 1015.61 1015.67 1015.70 1015.71 1015.71 1015.72
Thickness
5835 5833 5828 5824 5817 5811 5805 5800 5794 5791 5786 5781 5776 5772 5769 5770 5769 5769 5767 5766 5764 5763 5762 5761 5760 5760 5758 5757 5757 5756 5754 5753 5755 5751 5750 5754 5758 5758 5758 5758 5757 5757 5756
5836 5833 5830 5826 5820 5813 5808 5803 5798 5794 5790 5785 5781 5777 5774 5772 5772 5771 5769 5767 5765 5763 5763 5760 5759 5759 5757 5756 5756 5755 5752 5752 5754 5749 5744 5741 5746 5753 5759 5758 5757 5757 5757
5839 5835 5831 5828 5824 5817 5812 5808 5802 5798 5793 5790 5785 5781 5776 5773 5770 5769 5768 5767 5766 5764 5763 5761 5760 5759 5757 5755 5754 5754 5751 5748 5751 5752 5745 5738 5736 5743 5752 5756 5757 5757 5756
5848 5841 5835 5831 5827 5823 5819 5814 5807 5802 5797 5792 5787 5780 5774 5770 5770 5770 5769 5768 5767 5766 5764 5762 5760 5758 5757 5756 5754 5754 5753 5749 5747 5749 5751 5749 5747 5739 5739 5747 5754 5755 5755
5855 5847 5842 5837 5834 5830 5824 5818 5811 5804 5800 5795 5790 5783 5778 5776 5774 5773 5770 5768 5767 5766 5765 5764 5761 5759 5757 5756 5755 5754 5753 5751 5749 5747 5747 5747 5747 5746 5739 5737 5744 5749 5752
5861 5854 5850 5844 5838 5835 5829 5822 5813 5806 5802 5797 5792 5787 5781 5777 5774 5771 5768 5768 5767 5767 5766 5764 5762 5759 5757 5756 5755 5754 5753 5752 5751 5749 5748 5746 5744 5743 5742 5738 5739 5741 5746
5864 5856 5849 5844 5839 5835 5830 5824 5815 5807 5803 5798 5793 5790 5785 5780 5776 5772 5770 5768 5767 5766 5765 5764 5761 5759 5758 5756 5755 5753 5752 5752 5750 5749 5749 5749 5749 5748 5746 5741 5738 5739 5743
5867 5859 5853 5847 5841 5836 5832 5826 5817 5810 5805 5800 5795 5792 5787 5783 5779 5776 5773 5771 5769 5768 5767 5765 5762 5760 5758 5757 5756 5754 5752 5752 5751 5751 5750 5749 5749 5750 5748 5743 5738 5734 5736
5869 5862 5856 5851 5844 5838 5834 5829 5820 5813 5808 5803 5798 5793 5789 5785 5781 5779 5776 5773 5771 5770 5767 5765 5762 5760 5759 5757 5756 5754 5753 5752 5751 5750 5750 5749 5749 5749 5749 5747 5743 5734 5728
5865 5863 5859 5854 5848 5843 5837 5832 5824 5817 5811 5807 5801 5796 5791 5787 5783 5780 5776 5773 5771 5769 5767 5764 5763 5761 5759 5758 5756 5754 5754 5751 5750 5749 5748 5747 5747 5747 5747 5746 5744 5740 5733
5864 5861 5856 5855 5851 5846 5839 5832 5825 5818 5813 5808 5803 5799 5793 5789 5785 5780 5777 5774 5771 5768 5766 5764 5762 5760 5759 5757 5755 5753 5752 5750 5748 5747 5746 5744 5745 5743 5743 5742 5740 5738 5734
5867 5863 5854 5852 5850 5845 5839 5833 5827 5821 5815 5811 5805 5799 5795 5790 5786 5782 5779 5776 5772 5769 5766 5764 5761 5759 5758 5756 5753 5750 5750 5747 5745 5744 5743 5742 5742 5740 5739 5738 5737 5735 5733
5863 5860 5853 5851 5848 5844 5839 5834 5829 5824 5819 5813 5806 5800 5795 5790 5786 5783 5779 5775 5772 5768 5766 5763 5760 5757 5755 5753 5751 5749 5747 5745 5743 5742 5740 5739 5737 5735 5734 5733 5732 5731 5731
5859 5855 5850 5849 5847 5843 5839 5835 5830 5827 5821 5814 5806 5799 5795 5791 5787 5783 5779 5775 5771 5767 5764 5761 5758 5755 5753 5751 5748 5746 5744 5742 5741 5740 5738 5736 5734 5732 5731 5729 5728 5727 5724
5854 5851 5848 5845 5843 5840 5837 5834 5830 5826 5822 5814 5806 5800 5796 5791 5787 5782 5778 5774 5770 5767 5762 5758 5755 5752 5749 5746 5742 5741 5741 5738 5736 5736 5734 5732 5730 5728 5726 5725 5723 5721 5718
5848 5848 5846 5843 5840 5837 5835 5831 5828 5824 5819 5812 5806 5801 5795 5790 5784 5780 5775 5771 5768 5763 5759 5754 5751 5747 5744 5739 5737 5735 5735 5734 5732 5730 5728 5728 5725 5722 5720 5718 5717 5715 5712
5843 5841 5841 5839 5837 5836 5834 5828 5825 5822 5815 5808 5804 5799 5793 5787 5782 5778 5772 5767 5763 5759 5756 5751 5747 5742 5737 5734 5732 5730 5729 5729 5727 5724 5722 5722 5720 5717 5714 5712 5711 5709 5707
5837 5837 5837 5835 5835 5834 5832 5828 5823 5817 5810 5805 5800 5795 5789 5784 5779 5773 5768 5764 5760 5756 5752 5747 5744 5738 5732 5728 5726 5725 5725 5724 5722 5720 5717 5714 5712 5709 5707 5707 5705 5703 5701
5833 5833 5833 5832 5828 5826 5826 5822 5816 5810 5804 5798 5794 5790 5786 5779 5774 5768 5763 5760 5756 5751 5747 5743 5739 5734 5727 5723 5720 5718 5720 5718 5716 5714 5711 5708 5704 5701 5699 5699 5697 5695 5693
5825 5826 5826 5824 5820 5819 5819 5812 5806 5801 5795 5792 5788 5784 5780 5775 5769 5764 5759 5756 5751 5746 5742 5738 5734 5729 5723 5717 5714 5711 5713 5712 5710 5707 5704 5699 5697 5694 5691 5690 5689 5686 5685
5815 5817 5816 5812 5810 5810 5807 5801 5796 5791 5789 5786 5781 5777 5773 5769 5765 5759 5754 5749 5744 5740 5735 5730 5726 5722 5716 5710 5706 5703 5703 5702 5701 5700 5697 5693 5689 5686 5684 5682 5681 5678 5677
5803 5804 5802 5800 5799 5799 5794 5788 5784 5784 5782 5778 5771 5766 5764 5762 5758 5752 5746 5742 5737 5731 5726 5722 5718 5714 5709 5704 5699 5695 5692 5691 5691 5690 5689 5685 5681 5678 5676 5674 5672 5670 5669
5791 5792 5790 5786 5785 5785 5782 5775 5774 5774 5771 5766 5761 5757 5754 5750 5747 5742 5738 5733 5728 5723 5719 5714 5710 5706 5702 5696 5691 5688 5685 5683 5682 5681 5677 5675 5673 5670 5669 5666 5664 5662 5661
5776 5777 5775 5772 5770 5770 5768 5765 5763 5761 5758 5754 5749 5746 5742 5738 5734 5731 5728 5723 5717 5713 5710 5706 5702 5698 5694 5688 5683 5680 5677 5674 5673 5671 5669 5666 5663 5661 5659 5658 5656 5654 5652
5762 5762 5760 5757 5756 5755 5754 5753 5751 5749 5744 5741 5738 5735 5732 5728 5723 5717 5711 5709 5703 5699 5696 5695 5692 5687 5683 5676 5671 5669 5667 5665 5663 5661 5661 5659 5657 5654 5653 5651 5649 5646 5644
5748 5747 5746 5745 5744 5743 5741 5740 5739 5737 5733 5729 5727 5725 5722 5718 5714 5706 5698 5691 5689 5685 5682 5679 5678 5674 5670 5666 5662 5659 5657 5654 5652 5652 5652 5650 5648 5646 5644 5641 5639 5636 5634